Regional Weather Roundup
Issued by NWS

Home | Current Version | Previous Version | Graphics & Text | Print | Product List | Glossary On
Versions: 1 2 3 4 5 6 7 8 9 10 11 12 13 14 15 16 17 18 19 20 21 22 23 24 25 26 27 28 29 30 31 32 33 34 35 36 37 38 39 40 41 42 43 44 45 46 47 48 49 50
000
ASUS43 KLOT 281208
RWRIL

ILLINOIS REGIONAL WEATHER ROUNDUP
NATIONAL WEATHER SERVICE CHICAGO/ROMEOVILLE IL
700 AM CDT SUN AUG 28 2016

NOTE: "FAIR" INDICATES FEW OR NO CLOUDS BELOW 12,000 FEET WITH NO
SIGNIFICANT WEATHER AND/OR OBSTRUCTIONS TO VISIBILITY.

* THESE STATIONS ARE NOT UNDER NWS QUALITY CONTROL. THEY ALSO MAY NOT
  REPORT WEATHER SUCH AS PRECIPITATION OR FOG.

ILZ001-002-007-009-015-016-024-281300-
NORTHWEST ILLINOIS

CITY           SKY/WX    TMP DP  RH WIND       PRES   REMARKS
MOLINE         CLOUDY    70  67  90 E5        30.14R
6HR MIN TEMP:  68; 6HR MAX TEMP:  72;

STERLING*      PTCLDY    68  68 100 E3        30.16R FOG
SAVANNA*       CLEAR     67  67  98 NE3       30.15R
$$

ILZ003-004-008-010-011-017-018-281300-
NORTH CENTRAL ILLINOIS

CITY           SKY/WX    TMP DP  RH WIND       PRES   REMARKS
ROCKFORD       MOCLDY    68  67  96 CALM      30.18R FOG
6HR MIN TEMP:  67; 6HR MAX TEMP:  72;

FREEPORT*      FOG       63  62  99 CALM      30.18R VSB<1/4
ROCHELLE*      CLEAR     67  67 100 CALM      30.17R FOG
DE KALB*       CLEAR     67  67  99 E5        30.18R FOG
$$

ILZ005-006-012>014-019>023-281300-
NORTHEAST ILLINOIS

CITY           SKY/WX    TMP DP  RH WIND       PRES   REMARKS
CHICAGO-OHARE  PTCLDY    72  69  90 N3        30.16R
6HR MIN TEMP:  71; 6HR MAX TEMP:  75;

CHICAGO-MIDWAY PTCLDY    75  70  84 SE5       30.17R
6HR MIN TEMP:  74; 6HR MAX TEMP:  78;

AURORA         MOCLDY    69  67  93 CALM      30.17R
6HR MIN TEMP:  67; 6HR MAX TEMP:  70;

LANSING*       PTCLDY    71  71 100 CALM      30.18R
JOLIET*        CLEAR     71  71  99 CALM      30.17R FOG
WAUKEGAN       FOG       69  67  93 CALM      30.16R VSB<1/4
6HR MIN TEMP:  68; 6HR MAX TEMP:  72;

DUPAGE AIRPORT CLEAR     67  65  93 CALM      30.17R
6HR MIN TEMP:  66; 6HR MAX TEMP:  71;

KANKAKEE*      MOCLDY    72  70  95 SE3       30.18R THUNDER
WHEELING       MOCLDY    70  69  97 CALM      30.18R FOG
6HR MIN TEMP:  70; 6HR MAX TEMP:  73; 6HR PCP:  0.14;

MORRIS*        MOCLDY    69  69  97 CALM      30.16R FOG
ROMEOVILLE*    CLEAR     70  70 100 SE3       30.17R FOG
$$

LMZ740>746-281300-
SOUTHERN LAKE MICHIGAN

STATION/POSITION SKY/WX   TEMP    WIND        PRES    VSBY  WAVE
                          AIR SEA DIR/SP/G                  HT/PER
                          (F)     (DEG/KT/KT) (MB)    (MI)  (FT/S)
SOUTHERN BUOY              73 74   50/  6/  6 1020.8R         1
WILMETTE HARBOR            71 70  360/  2/  4   N/A           0
HARRISON CRIB              73      30/  6/  6   N/A
BURNHAM HARBOR             72      20/  2/  6   N/A
CALUMET HARBOR             72      30/  3/  4 1020.5R
BURNS HARBOR               73      CALM  /  8 1021.3R
MICHIGAN CITY              73     200/  4/  4   N/A
MICHIGAN CITY 6N           75 76     CALM       N/A           0
ST. JOSEPH                 74 75   30/  4/  6 1021.4R         1
$$

ILZ025>027-034>036-040-047-049-050-058-095>099-281300-
WEST-CENTRAL ILLINOIS

CITY           SKY/WX    TMP DP  RH WIND       PRES   REMARKS
QUINCY         CLEAR     71  70  96 SE5       30.13R
GALESBURG*     CLEAR     70  69  99 SE3       30.14R FOG
MACOMB*        CLEAR     68  68 100 CALM      30.17R FOG
JACKSONVILLE*  CLOUDY    72  70  94 E8        30.15R
PITTSFIELD*    CLEAR     70  70  99 CALM      30.14R FOG
$$

ILZ028>032-037-038-041>044-048-051>054-059>061-281300-
CENTRAL ILLINOIS

CITY           SKY/WX    TMP DP  RH WIND       PRES   REMARKS
PONTIAC        MOCLDY    70  70 100 CALM      30.17R
DECATUR        CLOUDY    72  70  93 CALM      30.17R
PEORIA         CLEAR     71  71 100 CALM      30.15R
6HR MIN TEMP:  70; 6HR MAX TEMP:  74;

LACON*         CLEAR     70  69  97 CALM      30.14R
LINCOLN*       TSTM      73  71  94 CALM      30.16R
SPRINGFIELD    TSTM      72  69  90 S7        30.15F FOG
6HR MIN TEMP:  71; 6HR MAX TEMP:  78; 6HR PCP:  1.44;

TAYLORVILLE    PTCLDY    70  70 100 CALM      30.17R FOG
6HR MIN TEMP:  68; 6HR MAX TEMP:  74;

$$

ILZ033-039-045-046-055>057-062-063-281300-
EAST-CENTRAL ILLINOIS

CITY           SKY/WX    TMP DP  RH WIND       PRES   REMARKS
CHAMPAIGN      CLOUDY    71  69  93 SE5       30.17R FOG
RANTOUL*       MOCLDY    73  71  95 SE7       30.17R
MATTOON        CLEAR     70  68  93 CALM      30.17R FOG
PARIS*         CLEAR     69  69 100 CALM      30.17S FOG
$$

ILZ079-100>102-281300-
SOUTHWEST ILLINOIS

CITY           SKY/WX    TMP DP  RH WIND       PRES   REMARKS
ALTON          MOCLDY    68  68 100 CALM      30.15R FOG
BELLEVILLE     FOG       71  71 100 CALM      30.13R VSB 1/2
CAHOKIA*       PTCLDY    72  70  93 CALM      30.13R
SPARTA*        CLEAR     71  71  99 CALM      30.15R
$$

ILZ064>066-069>071-074>076-080>082-084>086-088>090-092>094-281300-
SOUTH-CENTRAL ILLINOIS

CITY           SKY/WX    TMP DP  RH WIND       PRES   REMARKS
CARBONDALE     FOG       71  70  96 CALM      30.14R VSB<1/4
6HR MIN TEMP:  70; 6HR MAX TEMP:  73;

CAIRO*         FOG       71  71 100 CALM      30.13R VSB<1/4
EFFINGHAM*     CLEAR     70  70 100 CALM      30.18R FOG
MARION         PTCLDY    73  72  94 CALM      30.15R
MT. VERNON     CLEAR     72  66  83 N3        30.15R
CENTRALIA*     CLEAR     72  72 100 CALM      30.14R FOG
SALEM*         FOG       72  70  95 CALM      30.15R VSB 1
METROPOLIS*    CLEAR     72  72  99 CALM      30.14R FOG
$$

ILZ067-068-072-073-078-083-087-091-281300-
SOUTHEAST ILLINOIS

CITY           SKY/WX    TMP DP  RH WIND       PRES   REMARKS
LAWRENCEVILLE  MOCLDY    73  72  96 CALM      30.16R FOG
FLORA*         PTCLDY    73  72  97 CALM      30.16R FOG
FAIRFIELD*       N/A     72  72 100 CALM      30.14R
HARRISBURG*    MOCLDY    72  72 100 CALM      30.14R FOG
ROBINSON*      FOG       67  67 100 CALM      30.17R VSB 1/4
CARMI*           N/A     72  72 100 CALM      30.14R FOG
$$

ABBREVIATIONS USED IN REMARKS
   TC - TEMPERATURE IN CELSIUS
  WCI - WIND CHILL INDEX
   HX - HEAT INDEX
  VSB - VISIBILITY
$$





USA.gov is the U.S. government's official web portal to all federal, state and local government web resources and services.